Location: Buch
(50.1863°N, 11.0141°E)
Time: 13:11:22
(UTC+00:00)

Cosmos 1602 Rocket - Pass Details

Date: 18 January 2020
Orbit: 603 x 634 km, 82.5° (Epoch: 16 February)

Event Time Altitude Azimuth Distance (km) Brightness Sun altitude
Exits shadow 05:21:44 28° 258° (WSW) 1,147 4.4 -16.4°
Drops below altitude 10° 05:24:57 10° 211° (SSW) 1,947 5.9 -15.9°
Sets 05:27:21 0° 200° (SSW) 2,846 6.9 -15.5°
